Waarnemingen

Advertentie
Mijn weer
Timrå/Midlanda, Zweden (2366): temperatuur & dauwpunt: 15.05.2019 00:00:00 - 21.05.2019 00:00:00 (CEST)Timrå/Midlanda, Zweden (2366): windsnelheid: 15.05.2019 00:00:00 - 21.05.2019 00:00:00 (CEST)Timrå/Midlanda, Zweden (2366): windrichting: 15.05.2019 00:00:00 - 21.05.2019 00:00:00 (CEST)Timrå/Midlanda, Zweden (2366): luchtdruk: 15.05.2019 00:00:00 - 21.05.2019 00:00:00 (CEST)Timrå/Midlanda, Zweden (2366): zicht: 15.05.2019 00:00:00 - 21.05.2019 00:00:00 (CEST)
Datum & Tijd tt [°C] td [°C] ff [km/u] ff [kn] dd ppp [hPa] vv [km]
21.05.2019 00:00:00 8,8 8,6 9 5 NNW 1013,7 10
20.05.2019 23:00:00 8,8 8,5 2 1 - 1014,1 0,1
20.05.2019 22:00:00 10,7 10,1 2 1 - 1013,7 10
20.05.2019 21:00:00 12,3 9,9 4 2 - 1013,6 10
20.05.2019 20:00:00 13,4 10,0 9 5 ZZO 1013,6 10
20.05.2019 19:00:00 14,5 9,8 9 5 ZO 1013,4 10
20.05.2019 18:00:00 16,4 10,1 15 8 ZZO 1013,5 10
20.05.2019 17:00:00 17,2 9,8 11 6 Z 1013,5 10
20.05.2019 16:00:00 15,5 7,8 21 11 ZZO 1013,8 10
20.05.2019 15:00:00 18,0 9,7 18 10 ZZO 1013,6 10
20.05.2019 14:00:00 20,2 10,7 15 8 ZZO 1013,6 10
20.05.2019 13:00:00 20,0 10,4 13 7 ZZO 1013,9 10
20.05.2019 12:00:00 18,8 9,3 11 6 ZO 1014,2 10
20.05.2019 11:00:00 18,0 9,8 5 3 OZO 1014,3 10
20.05.2019 10:00:00 16,1 9,2 5 3 - 1014,4 10
20.05.2019 09:00:00 15,8 8,0 4 2 - 1014,6 10
20.05.2019 08:00:00 13,1 6,8 2 1 - 1014,7 10
20.05.2019 07:00:00 10,0 5,8 2 1 - 1015,0 10
20.05.2019 06:00:00 7,2 5,2 4 2 - 1015,0 10
20.05.2019 05:00:00 5,4 4,9 5 3 NW 1015,3 8
20.05.2019 04:00:00 4,2 3,8 4 2 - 1015,4 10
20.05.2019 03:00:00 5,7 4,7 5 3 - 1015,4 10
20.05.2019 02:00:00 4,4 4,1 5 3 NW 1015,2 10
20.05.2019 01:00:00 5,3 4,8 4 2 N 1015,6 10
20.05.2019 00:00:00 6,2 5,5 5 3 N 1015,5 10
19.05.2019 23:00:00 7,6 5,3 4 2 NO 1015,5 10
19.05.2019 22:00:00 10,2 5,6 8 4 ZO 1015,2 10
19.05.2019 21:00:00 11,0 6,1 5 3 ZO 1015,0 10
19.05.2019 20:00:00 11,4 5,8 8 4 Z 1014,8 10
19.05.2019 19:00:00 11,7 6,1 9 5 Z 1015,0 10
19.05.2019 18:00:00 11,7 6,3 8 4 Z 1015,1 10
19.05.2019 17:00:00 16,1 7,0 11 6 ZZO 1015,0 10
19.05.2019 16:00:00 17,1 4,6 8 4 NO 1015,2 10
19.05.2019 15:00:00 13,7 9,6 4 2 - 1015,7 10
19.05.2019 14:00:00 12,9 8,0 4 2 - 1016,1 10
19.05.2019 13:00:00 13,0 6,7 9 5 ZZO 1016,7 10
19.05.2019 12:00:00 14,6 5,0 13 7 Z 1016,6 10
19.05.2019 11:00:00 16,6 4,3 9 5 ZZO 1016,2 10
19.05.2019 10:00:00 16,1 5,3 8 4 O 1016,4 10
19.05.2019 09:00:00 15,0 6,4 5 3 - 1016,3 10
19.05.2019 08:00:00 12,3 5,1 9 5 NW 1016,6 10
19.05.2019 07:00:00 9,6 3,8 13 7 NW 1016,8 10
19.05.2019 06:00:00 7,6 3,3 18 10 NW 1017,3 10
19.05.2019 05:00:00 7,3 3,4 11 6 NW 1017,7 10
19.05.2019 04:00:00 5,6 2,8 8 4 NW 1018,1 10
19.05.2019 03:00:00 4,1 3,0 2 1 - 1018,2 10
19.05.2019 02:00:00 6,9 4,2 4 2 - 1018,7 10
19.05.2019 01:00:00 5,6 5,0 2 1 - 1019,0 10
19.05.2019 00:00:00 6,1 5,3 4 2 NNW 1019,0 10
18.05.2019 23:00:00 7,3 5,7 4 2 NNW 1019,2 10
18.05.2019 22:00:00 8,7 6,0 5 3 ZZO 1019,0 10
18.05.2019 21:00:00 11,9 6,1 2 1 ZO 1019,1 10
18.05.2019 20:00:00 14,4 5,9 5 3 ZZO 1019,5 10
18.05.2019 19:00:00 14,8 5,5 5 3 - 1019,7 10
18.05.2019 18:00:00 14,3 5,4 11 6 ZO 1020,4 10
18.05.2019 17:00:00 14,8 5,6 13 7 ZZO 1020,7 10
18.05.2019 16:00:00 14,2 5,2 16 9 Z 1021,2 10
18.05.2019 15:00:00 16,4 4,8 21 11 Z 1021,4 10
18.05.2019 14:00:00 17,4 4,5 18 10 Z 1021,5 10
18.05.2019 13:00:00 18,2 5,6 16 9 Z 1022,1 10
18.05.2019 12:00:00 16,4 6,1 18 10 Z 1022,5 10
18.05.2019 11:00:00 15,7 5,9 18 10 Z 1023,0 10
18.05.2019 10:00:00 15,0 5,2 16 9 Z 1022,8 10
18.05.2019 09:00:00 15,9 5,0 5 3 - 1022,8 10
18.05.2019 08:00:00 12,4 4,8 11 6 NW 1023,3 10
18.05.2019 07:00:00 8,2 3,4 15 8 NW 1023,5 10
18.05.2019 06:00:00 5,5 2,4 18 10 NW 1024,1 10
18.05.2019 05:00:00 4,3 2,2 15 8 NW 1024,5 10
18.05.2019 04:00:00 2,5 1,9 5 3 NNW 1024,9 10
18.05.2019 03:00:00 3,1 2,4 4 2 NW 1025,0 10
18.05.2019 02:00:00 2,6 1,9 0 0 N 1025,0 0,5
18.05.2019 01:00:00 3,7 3,2 4 2 NW 1024,9 10
18.05.2019 00:00:00 4,3 2,9 5 3 NNW 1024,9 10
17.05.2019 23:00:00 5,3 3,1 5 3 NNW 1024,9 10
17.05.2019 22:00:00 7,3 4,3 5 3 WNW 1024,9 10
17.05.2019 21:00:00 11,3 3,6 5 3 OZO 1024,9 10
17.05.2019 20:00:00 13,8 2,3 8 4 ZO 1025,0 10
17.05.2019 19:00:00 14,5 1,2 11 6 ZZO 1025,4 10
17.05.2019 18:00:00 14,8 1,8 15 8 ZZO 1026,0 10
17.05.2019 17:00:00 15,0 2,3 18 10 ZZO 1026,4 10
17.05.2019 16:00:00 14,8 3,1 18 10 ZZO 1026,9 10
17.05.2019 15:00:00 14,4 3,8 18 10 ZZO 1027,3 10
17.05.2019 14:00:00 14,9 2,7 24 13 ZZO 1027,4 10
17.05.2019 13:00:00 15,1 2,8 22 12 ZZO 1027,2 10
17.05.2019 12:00:00 15,3 3,4 16 9 ZZO 1027,8 10
17.05.2019 11:00:00 14,0 3,9 18 10 ZZO 1028,4 10
17.05.2019 10:00:00 14,2 5,4 8 4 ZO 1028,6 10
17.05.2019 09:00:00 11,7 6,1 8 4 Z 1028,7 10
17.05.2019 08:00:00 10,1 5,2 5 3 ZZO 1028,6 10
17.05.2019 07:00:00 8,4 4,2 4 2 - 1028,6 10
17.05.2019 06:00:00 5,8 3,8 5 3 NNW 1028,4 10
17.05.2019 05:00:00 4,5 3,3 8 4 NNW 1028,4 10
17.05.2019 04:00:00 2,3 2,0 4 2 - 1028,3 3,0
17.05.2019 03:00:00 3,1 2,8 4 2 NW 1028,5 10
17.05.2019 02:00:00 3,4 3,1 2 1 N 1028,4 10
17.05.2019 01:00:00 4,0 3,6 4 2 NW 1028,4 10
17.05.2019 00:00:00 4,7 4,0 4 2 NW 1028,4 10
16.05.2019 23:00:00 6,1 4,3 4 2 N 1028,1 10
16.05.2019 22:00:00 7,0 4,3 4 2 NNW 1027,9 10
16.05.2019 21:00:00 11,1 4,6 5 3 ZZO 1027,8 10
16.05.2019 20:00:00 12,5 4,6 11 6 ZO 1027,7 10
16.05.2019 19:00:00 13,3 4,6 16 9 ZO 1027,8 10
16.05.2019 18:00:00 14,0 4,7 22 12 ZO 1028,1 10
16.05.2019 17:00:00 15,9 5,6 18 10 ZO 1028,1 10
16.05.2019 16:00:00 15,7 5,5 18 10 ZO 1028,5 10
16.05.2019 15:00:00 16,1 5,6 24 13 ZO 1028,6 10
16.05.2019 14:00:00 16,2 5,8 26 14 ZO 1028,8 10
16.05.2019 13:00:00 15,9 5,5 15 8 ZZO 1029,2 10
16.05.2019 12:00:00 18,3 5,1 8 4 ZW 1029,6 10
16.05.2019 11:00:00 17,0 5,8 5 3 OZO 1030,2 10
16.05.2019 10:00:00 15,6 4,7 2 1 - 1030,5 10
16.05.2019 09:00:00 13,7 5,1 5 3 NNW 1030,8 10
16.05.2019 08:00:00 11,9 5,3 9 5 NW 1030,9 10
16.05.2019 07:00:00 9,6 5,3 4 2 - 1031,0 10
16.05.2019 06:00:00 6,3 4,7 4 2 WNW 1031,1 10
16.05.2019 05:00:00 4,4 3,7 2 1 - 1031,2 10
16.05.2019 04:00:00 3,9 3,5 5 3 WNW 1031,1 10
16.05.2019 03:00:00 4,2 3,7 0 0 N 1031,1 10
16.05.2019 02:00:00 5,4 3,8 4 2 N 1031,0 10
16.05.2019 01:00:00 8,0 4,5 0 0 N 1030,9 10
16.05.2019 00:00:00 7,6 4,7 4 2 NNW 1031,0 10
15.05.2019 23:00:00 7,9 4,3 0 0 N 1030,9 10
15.05.2019 22:00:00 7,9 4,1 2 1 - 1031,0 10
15.05.2019 21:00:00 9,9 3,0 5 3 OZO 1030,6 10
15.05.2019 20:00:00 10,8 3,4 9 5 ZO 1030,2 10
15.05.2019 19:00:00 12,7 3,2 13 7 ZO 1029,9 10
15.05.2019 18:00:00 14,1 3,4 9 5 - 1029,9 10
15.05.2019 17:00:00 15,6 3,4 13 7 ZZO 1030,2 10
15.05.2019 16:00:00 15,6 0,8 11 6 N 1030,4 10
15.05.2019 15:00:00 14,6 0,5 13 7 NNW 1030,7 10
15.05.2019 14:00:00 14,7 1,5 15 8 NNW 1030,7 10
15.05.2019 13:00:00 13,8 0,8 8 4 WNW 1030,8 10
15.05.2019 12:00:00 13,2 2,3 11 6 NW 1031,0 10
15.05.2019 11:00:00 12,4 3,3 11 6 NW 1031,0 10
15.05.2019 10:00:00 13,2 2,7 8 4 N 1031,1 10
15.05.2019 09:00:00 11,6 3,4 18 10 NNW 1031,2 10
15.05.2019 08:00:00 10,8 4,2 9 5 NNW 1031,0 10
15.05.2019 07:00:00 8,7 3,4 0 0 N 1031,0 10
15.05.2019 06:00:00 5,6 2,4 8 4 NNW 1031,0 10
15.05.2019 05:00:00 3,1 1,4 5 3 W 1031,0 10
15.05.2019 04:00:00 1,7 0,0 2 1 - 1030,9 10
15.05.2019 03:00:00 3,1 1,5 0 0 N 1031,0 10
15.05.2019 02:00:00 4,2 1,7 2 1 WNW 1030,8 10
15.05.2019 01:00:00 4,9 1,9 0 0 N 1030,7 10
15.05.2019 00:00:00 4,1 2,0 0 0 N 1030,3 10

tt = temperatuur
td = dauwpunt
ff = windsnelheid
dd = windrichting
ppp = luchtdruk
vv = zicht

Weerstations in de omgeving